Year,Month,Day,Hour,Minute,Value (Times are PST for windspeed in km/hr)
2006,12,16,00,00,2.50
2006,12,16,00,01,2.00
2006,12,16,00,02,1.60
2006,12,16,00,03,0.90
2006,12,16,00,04,0.20
2006,12,16,00,05,0.20
2006,12,16,00,06,0.10
2006,12,16,00,07,0.00
2006,12,16,00,08,0.60
2006,12,16,00,09,1.20
2006,12,16,00,10,1.00
2006,12,16,00,11,1.30
2006,12,16,00,12,0.40
2006,12,16,00,13,0.60
2006,12,16,00,14,0.30
2006,12,16,00,15,2.00
2006,12,16,00,16,1.20
2006,12,16,00,17,0.20
2006,12,16,00,18,0.90
2006,12,16,00,19,0.30
2006,12,16,00,20,0.60
2006,12,16,00,21,0.80
2006,12,16,00,22,1.20
2006,12,16,00,23,0.50
2006,12,16,00,24,0.20
2006,12,16,00,25,0.00
2006,12,16,00,26,0.20
2006,12,16,00,27,0.30
2006,12,16,00,28,1.00
2006,12,16,00,29,0.40
2006,12,16,00,30,0.10
2006,12,16,00,31,0.80
2006,12,16,00,32,2.10
2006,12,16,00,33,0.80
2006,12,16,00,34,0.20
2006,12,16,00,35,0.00
2006,12,16,00,36,0.30
2006,12,16,00,37,0.50
2006,12,16,00,38,0.00
2006,12,16,00,39,0.20
2006,12,16,00,40,1.00
2006,12,16,00,41,0.70
2006,12,16,00,42,0.00
2006,12,16,00,43,1.10
2006,12,16,00,44,0.80
2006,12,16,00,45,0.00
2006,12,16,00,46,0.20
2006,12,16,00,47,0.60
2006,12,16,00,48,0.70
2006,12,16,00,49,0.30
2006,12,16,00,50,0.00
2006,12,16,00,51,0.00
2006,12,16,00,52,0.70
2006,12,16,00,53,0.00
2006,12,16,00,54,0.00
2006,12,16,00,55,0.00
2006,12,16,00,56,0.00
2006,12,16,00,57,0.30
2006,12,16,00,58,0.60
2006,12,16,00,59,0.60
2006,12,16,01,00,0.00
2006,12,16,01,01,0.00
2006,12,16,01,02,0.00
2006,12,16,01,03,0.00
2006,12,16,01,04,0.00
2006,12,16,01,05,0.00
2006,12,16,01,06,0.00
2006,12,16,01,07,0.00
2006,12,16,01,08,1.80
2006,12,16,01,09,2.50
2006,12,16,01,10,1.70
2006,12,16,01,11,2.60
2006,12,16,01,12,2.70
2006,12,16,01,13,4.70
2006,12,16,01,14,2.50
2006,12,16,01,15,3.10
2006,12,16,01,16,3.30
2006,12,16,01,17,2.70
2006,12,16,01,18,2.40
2006,12,16,01,19,2.10
2006,12,16,01,20,1.10
2006,12,16,01,21,2.50
2006,12,16,01,22,3.00
2006,12,16,01,23,3.10
2006,12,16,01,24,1.30
2006,12,16,01,25,0.40
2006,12,16,01,26,2.70
2006,12,16,01,27,2.40
2006,12,16,01,28,2.70
2006,12,16,01,29,2.70
2006,12,16,01,30,1.10
2006,12,16,01,31,3.20
2006,12,16,01,32,3.20
2006,12,16,01,33,3.00
2006,12,16,01,34,3.20
2006,12,16,01,35,3.00
2006,12,16,01,36,2.70
2006,12,16,01,37,2.30
2006,12,16,01,38,3.60
2006,12,16,01,39,4.00
2006,12,16,01,40,2.10
2006,12,16,01,41,1.00
2006,12,16,01,42,1.30
2006,12,16,01,43,0.60
2006,12,16,01,44,0.00
2006,12,16,01,45,0.10
2006,12,16,01,46,0.10
2006,12,16,01,47,0.60
2006,12,16,01,48,2.70
2006,12,16,01,49,3.00
2006,12,16,01,50,2.30
2006,12,16,01,51,2.10
2006,12,16,01,52,4.90
2006,12,16,01,53,4.60
2006,12,16,01,54,4.30
2006,12,16,01,55,8.00
2006,12,16,01,56,6.60
2006,12,16,01,57,7.20
2006,12,16,01,58,9.50
2006,12,16,01,59,7.50
2006,12,16,02,00,6.20
2006,12,16,02,01,6.30
2006,12,16,02,02,5.10
2006,12,16,02,03,5.60
2006,12,16,02,04,5.50
2006,12,16,02,05,7.60
2006,12,16,02,06,5.30
2006,12,16,02,07,5.50
2006,12,16,02,08,6.00
2006,12,16,02,09,6.00
2006,12,16,02,10,6.40
2006,12,16,02,11,4.30
2006,12,16,02,12,2.30
2006,12,16,02,13,2.70
2006,12,16,02,14,4.00
2006,12,16,02,15,7.60
2006,12,16,02,16,8.30
2006,12,16,02,17,2.80
2006,12,16,02,18,3.90
2006,12,16,02,19,8.90
2006,12,16,02,20,11.30
2006,12,16,02,21,7.20
2006,12,16,02,22,6.50
2006,12,16,02,23,4.10
2006,12,16,02,24,4.30
2006,12,16,02,25,3.80
2006,12,16,02,26,5.90
2006,12,16,02,27,4.00
2006,12,16,02,28,5.60
2006,12,16,02,29,3.20
2006,12,16,02,30,1.90
2006,12,16,02,31,4.70
2006,12,16,02,32,3.50
2006,12,16,02,33,2.90
2006,12,16,02,34,3.70
2006,12,16,02,35,2.20
2006,12,16,02,36,4.30
2006,12,16,02,37,4.60
2006,12,16,02,38,3.30
2006,12,16,02,39,1.80
2006,12,16,02,40,4.90
2006,12,16,02,41,4.90
2006,12,16,02,42,3.00
2006,12,16,02,43,2.00
2006,12,16,02,44,0.10
2006,12,16,02,45,0.60
2006,12,16,02,46,2.00
2006,12,16,02,47,4.50
2006,12,16,02,48,2.10
2006,12,16,02,49,3.30
2006,12,16,02,50,0.60
2006,12,16,02,51,0.40
2006,12,16,02,52,0.00
2006,12,16,02,53,0.90
2006,12,16,02,54,1.40
2006,12,16,02,55,2.10
2006,12,16,02,56,4.10
2006,12,16,02,57,3.30
2006,12,16,02,58,2.80
2006,12,16,02,59,4.00
2006,12,16,03,00,3.10
2006,12,16,03,01,3.00
2006,12,16,03,02,4.40
2006,12,16,03,03,6.00
2006,12,16,03,04,2.50
2006,12,16,03,05,2.20
2006,12,16,03,06,2.10
2006,12,16,03,07,3.30
2006,12,16,03,08,2.50
2006,12,16,03,09,3.30
2006,12,16,03,10,4.20
2006,12,16,03,11,3.00
2006,12,16,03,12,2.10
2006,12,16,03,13,2.20
2006,12,16,03,14,0.30
2006,12,16,03,15,1.20
2006,12,16,03,16,1.20
2006,12,16,03,17,0.30
2006,12,16,03,18,0.70
2006,12,16,03,19,0.60
2006,12,16,03,20,0.90
2006,12,16,03,21,2.10
2006,12,16,03,22,2.50
2006,12,16,03,23,3.90
2006,12,16,03,24,4.10
2006,12,16,03,25,3.60
2006,12,16,03,26,4.90
2006,12,16,03,27,3.60
2006,12,16,03,28,3.30
2006,12,16,03,29,3.50
2006,12,16,03,30,2.30
2006,12,16,03,31,3.20
2006,12,16,03,32,5.00
2006,12,16,03,33,4.70
2006,12,16,03,34,3.60
2006,12,16,03,35,4.60
2006,12,16,03,36,3.10
2006,12,16,03,37,2.30
2006,12,16,03,38,2.10
2006,12,16,03,39,0.60
2006,12,16,03,40,1.10
2006,12,16,03,41,1.50
2006,12,16,03,42,1.90
2006,12,16,03,43,1.70
2006,12,16,03,44,3.10
2006,12,16,03,45,2.20
2006,12,16,03,46,3.90
2006,12,16,03,47,4.10
2006,12,16,03,48,3.40
2006,12,16,03,49,3.90
2006,12,16,03,50,3.30
2006,12,16,03,51,3.10
2006,12,16,03,52,4.20
2006,12,16,03,53,4.40
2006,12,16,03,54,5.10
2006,12,16,03,55,5.40
2006,12,16,03,56,1.40
2006,12,16,03,57,3.30
2006,12,16,03,58,2.20
2006,12,16,03,59,1.10
2006,12,16,04,00,1.90
2006,12,16,04,01,3.90
2006,12,16,04,02,2.40
2006,12,16,04,03,0.30
2006,12,16,04,04,1.90
2006,12,16,04,05,1.00
2006,12,16,04,06,7.20
2006,12,16,04,07,6.60
2006,12,16,04,08,6.30
2006,12,16,04,09,4.20
2006,12,16,04,10,4.40
2006,12,16,04,11,3.40
2006,12,16,04,12,3.90
2006,12,16,04,13,4.40
2006,12,16,04,14,5.20
2006,12,16,04,15,4.60
2006,12,16,04,16,1.60
2006,12,16,04,17,2.20
2006,12,16,04,18,1.70
2006,12,16,04,19,6.40
2006,12,16,04,20,6.00
2006,12,16,04,21,6.80
2006,12,16,04,22,5.40
2006,12,16,04,23,3.10
2006,12,16,04,24,1.50
2006,12,16,04,25,2.80
2006,12,16,04,26,0.40
2006,12,16,04,27,0.80
2006,12,16,04,28,5.30
2006,12,16,04,29,6.80
2006,12,16,04,30,3.50
2006,12,16,04,31,1.50
2006,12,16,04,32,1.90
2006,12,16,04,33,4.40
2006,12,16,04,34,1.50
2006,12,16,04,35,2.80
2006,12,16,04,36,2.90
2006,12,16,04,37,2.30
2006,12,16,04,38,1.60
2006,12,16,04,39,2.30
2006,12,16,04,40,6.00
2006,12,16,04,41,4.60
2006,12,16,04,42,3.20
2006,12,16,04,43,3.50
2006,12,16,04,44,4.40
2006,12,16,04,45,3.00
2006,12,16,04,46,1.90
2006,12,16,04,47,2.60
2006,12,16,04,48,2.00
2006,12,16,04,49,0.90
2006,12,16,04,50,1.90
2006,12,16,04,51,3.70
2006,12,16,04,52,2.40
2006,12,16,04,53,1.80
2006,12,16,04,54,1.40
2006,12,16,04,55,1.50
2006,12,16,04,56,6.20
2006,12,16,04,57,4.30
2006,12,16,04,58,3.60
2006,12,16,04,59,4.90
2006,12,16,05,00,5.10
2006,12,16,05,01,8.30
2006,12,16,05,02,4.60
2006,12,16,05,03,5.50
2006,12,16,05,04,10.80
2006,12,16,05,05,8.50
2006,12,16,05,06,5.80
2006,12,16,05,07,13.50
2006,12,16,05,08,6.40
2006,12,16,05,09,10.10
2006,12,16,05,10,7.80
2006,12,16,05,11,9.20
2006,12,16,05,12,10.90
2006,12,16,05,13,5.80
2006,12,16,05,14,7.10
2006,12,16,05,15,3.50
2006,12,16,05,16,5.90
2006,12,16,05,17,4.90
2006,12,16,05,18,6.40
2006,12,16,05,19,8.60
2006,12,16,05,20,4.90
2006,12,16,05,21,9.80
2006,12,16,05,22,6.80
2006,12,16,05,23,4.50
2006,12,16,05,24,2.70
2006,12,16,05,25,4.00
2006,12,16,05,26,4.50
2006,12,16,05,27,3.30
2006,12,16,05,28,6.80
2006,12,16,05,29,8.10
2006,12,16,05,30,6.80
2006,12,16,05,31,10.10
2006,12,16,05,32,5.80
2006,12,16,05,33,4.00
2006,12,16,05,34,5.60
2006,12,16,05,35,5.50
2006,12,16,05,36,3.80
2006,12,16,05,37,5.40
2006,12,16,05,38,3.10
2006,12,16,05,39,3.90
2006,12,16,05,40,6.20
2006,12,16,05,41,3.10
2006,12,16,05,42,2.00
2006,12,16,05,43,4.20
2006,12,16,05,44,3.10
2006,12,16,05,45,4.40
2006,12,16,05,46,6.50
2006,12,16,05,47,3.60
2006,12,16,05,48,4.90
2006,12,16,05,49,5.00
2006,12,16,05,50,1.40
2006,12,16,05,51,4.50
2006,12,16,05,52,5.30
2006,12,16,05,53,3.60
2006,12,16,05,54,2.40
2006,12,16,05,55,1.00
2006,12,16,05,56,3.50
2006,12,16,05,57,2.60
2006,12,16,05,58,2.00
2006,12,16,05,59,6.00
2006,12,16,06,00,9.30
2006,12,16,06,01,7.20
2006,12,16,06,02,6.20
2006,12,16,06,03,5.10
2006,12,16,06,04,4.70
2006,12,16,06,05,2.70
2006,12,16,06,06,2.40
2006,12,16,06,07,3.20
2006,12,16,06,08,5.70
2006,12,16,06,09,5.90
2006,12,16,06,10,6.80
2006,12,16,06,11,4.80
2006,12,16,06,12,6.70
2006,12,16,06,13,3.80
2006,12,16,06,14,4.80
2006,12,16,06,15,6.60
2006,12,16,06,16,8.90
2006,12,16,06,17,10.20
2006,12,16,06,18,4.60
2006,12,16,06,19,3.90
2006,12,16,06,20,1.70
2006,12,16,06,21,0.30
2006,12,16,06,22,1.50
2006,12,16,06,23,5.30
2006,12,16,06,24,6.40
2006,12,16,06,25,3.90
2006,12,16,06,26,8.80
2006,12,16,06,27,11.40
2006,12,16,06,28,8.80
2006,12,16,06,29,11.40
2006,12,16,06,30,9.60
2006,12,16,06,31,7.50
2006,12,16,06,32,4.10
2006,12,16,06,33,4.10
2006,12,16,06,34,9.20
2006,12,16,06,35,7.30
2006,12,16,06,36,8.00
2006,12,16,06,37,4.70
2006,12,16,06,38,4.70
2006,12,16,06,39,2.70
2006,12,16,06,40,5.80
2006,12,16,06,41,3.90
2006,12,16,06,42,3.00
2006,12,16,06,43,3.20
2006,12,16,06,44,5.40
2006,12,16,06,45,4.30
2006,12,16,06,46,2.40
2006,12,16,06,47,6.00
2006,12,16,06,48,13.20
2006,12,16,06,49,10.50
2006,12,16,06,50,3.80
2006,12,16,06,51,4.40
2006,12,16,06,52,8.40
2006,12,16,06,53,6.00
2006,12,16,06,54,11.30
2006,12,16,06,55,5.50
2006,12,16,06,56,4.90
2006,12,16,06,57,8.60
2006,12,16,06,58,11.10
2006,12,16,06,59,6.00
2006,12,16,07,00,5.60
2006,12,16,07,01,3.80
2006,12,16,07,02,4.50
2006,12,16,07,03,3.00
2006,12,16,07,04,4.50
2006,12,16,07,05,11.10
2006,12,16,07,06,8.80
2006,12,16,07,07,4.40
2006,12,16,07,08,3.80
2006,12,16,07,09,5.10
2006,12,16,07,10,6.50
2006,12,16,07,11,7.10
2006,12,16,07,12,7.50
2006,12,16,07,13,3.00
2006,12,16,07,14,6.60
2006,12,16,07,15,5.20
2006,12,16,07,16,6.70
2006,12,16,07,17,9.80
2006,12,16,07,18,6.90
2006,12,16,07,19,5.30
2006,12,16,07,20,3.00
2006,12,16,07,21,4.20
2006,12,16,07,22,3.60
2006,12,16,07,23,2.20
2006,12,16,07,24,3.10
2006,12,16,07,25,2.10
2006,12,16,07,26,7.00
2006,12,16,07,27,6.80
2006,12,16,07,28,2.20
2006,12,16,07,29,0.30
2006,12,16,07,30,2.10
2006,12,16,07,31,5.00
2006,12,16,07,32,4.80
2006,12,16,07,33,3.90
2006,12,16,07,34,7.80
2006,12,16,07,35,4.70
2006,12,16,07,36,3.50
2006,12,16,07,37,7.90
2006,12,16,07,38,7.20
2006,12,16,07,39,4.80
2006,12,16,07,40,3.50
2006,12,16,07,41,2.30
2006,12,16,07,42,1.90
2006,12,16,07,43,8.40
2006,12,16,07,44,6.20
2006,12,16,07,45,6.20
2006,12,16,07,46,3.10
2006,12,16,07,47,4.30
2006,12,16,07,48,8.00
2006,12,16,07,49,5.60
2006,12,16,07,50,7.90
2006,12,16,07,51,4.50
2006,12,16,07,52,7.60
2006,12,16,07,53,5.90
2006,12,16,07,54,5.60
2006,12,16,07,55,5.10
2006,12,16,07,56,8.90
2006,12,16,07,57,7.60
2006,12,16,07,58,6.00
2006,12,16,07,59,4.80
2006,12,16,08,00,3.70
2006,12,16,08,01,6.30
2006,12,16,08,02,4.00
2006,12,16,08,03,5.10
2006,12,16,08,04,3.50
2006,12,16,08,05,4.60
2006,12,16,08,06,3.90
2006,12,16,08,07,3.90
2006,12,16,08,08,5.40
2006,12,16,08,09,6.40
2006,12,16,08,10,4.10
2006,12,16,08,11,12.60
2006,12,16,08,12,10.80
2006,12,16,08,13,7.20
2006,12,16,08,14,7.80
2006,12,16,08,15,8.40
2006,12,16,08,16,8.10
2006,12,16,08,17,6.40
2006,12,16,08,18,4.40
2006,12,16,08,19,3.60
2006,12,16,08,20,5.20
2006,12,16,08,21,3.50
2006,12,16,08,22,2.60
2006,12,16,08,23,5.30
2006,12,16,08,24,7.20
2006,12,16,08,25,7.50
2006,12,16,08,26,5.30
2006,12,16,08,27,5.10
2006,12,16,08,28,6.00
2006,12,16,08,29,5.10
2006,12,16,08,30,1.60
2006,12,16,08,31,4.90
2006,12,16,08,32,7.30
2006,12,16,08,33,4.60
2006,12,16,08,34,9.80
2006,12,16,08,35,10.50
2006,12,16,08,36,8.90
2006,12,16,08,37,6.70
2006,12,16,08,38,8.90
2006,12,16,08,39,6.20
2006,12,16,08,40,8.00
2006,12,16,08,41,7.80
2006,12,16,08,42,5.30
2006,12,16,08,43,4.90
2006,12,16,08,44,7.80
2006,12,16,08,45,9.30
2006,12,16,08,46,8.50
2006,12,16,08,47,7.80
2006,12,16,08,48,7.70
2006,12,16,08,49,13.90
2006,12,16,08,50,13.00
2006,12,16,08,51,12.80
2006,12,16,08,52,7.50
2006,12,16,08,53,6.80
2006,12,16,08,54,6.60
2006,12,16,08,55,9.50
2006,12,16,08,56,6.30
2006,12,16,08,57,7.50
2006,12,16,08,58,5.80
2006,12,16,08,59,7.50
2006,12,16,09,00,8.40
2006,12,16,09,01,9.20
2006,12,16,09,02,13.40
2006,12,16,09,03,6.90
2006,12,16,09,04,5.60
2006,12,16,09,05,8.50
2006,12,16,09,06,11.00
2006,12,16,09,07,10.40
2006,12,16,09,08,7.20
2006,12,16,09,09,5.00
2006,12,16,09,10,5.20
2006,12,16,09,11,3.10
2006,12,16,09,12,4.30
2006,12,16,09,13,2.10
2006,12,16,09,14,5.70
2006,12,16,09,15,5.50
2006,12,16,09,16,4.70
2006,12,16,09,17,3.90
2006,12,16,09,18,5.00
2006,12,16,09,19,5.90
2006,12,16,09,20,4.40
2006,12,16,09,21,7.90
2006,12,16,09,22,10.40
2006,12,16,09,23,9.80
2006,12,16,09,24,11.30
2006,12,16,09,25,7.70
2006,12,16,09,26,7.50
2006,12,16,09,27,6.90
2006,12,16,09,28,6.60
2006,12,16,09,29,5.80
2006,12,16,09,30,9.60
2006,12,16,09,31,14.30
2006,12,16,09,32,9.20
2006,12,16,09,33,7.40
2006,12,16,09,34,5.60
2006,12,16,09,35,7.00
2006,12,16,09,36,6.00
2006,12,16,09,37,5.90
2006,12,16,09,38,6.50
2006,12,16,09,39,4.20
2006,12,16,09,40,6.50
2006,12,16,09,41,3.90
2006,12,16,09,42,6.80
2006,12,16,09,43,6.80
2006,12,16,09,44,5.30
2006,12,16,09,45,6.00
2006,12,16,09,46,6.60
2006,12,16,09,47,4.10
2006,12,16,09,48,2.20
2006,12,16,09,49,6.10
2006,12,16,09,50,6.90
2006,12,16,09,51,3.90
2006,12,16,09,52,2.70
2006,12,16,09,53,2.60
2006,12,16,09,54,8.50
2006,12,16,09,55,4.90
2006,12,16,09,56,4.60
2006,12,16,09,57,5.20
2006,12,16,09,58,5.30
2006,12,16,09,59,4.30
2006,12,16,10,00,5.80
2006,12,16,10,01,8.70
2006,12,16,10,02,6.10
2006,12,16,10,03,8.60
2006,12,16,10,04,7.90
2006,12,16,10,05,9.30
2006,12,16,10,06,11.40
2006,12,16,10,07,9.70
2006,12,16,10,08,4.90
2006,12,16,10,09,6.40
2006,12,16,10,10,11.20
2006,12,16,10,11,11.20
2006,12,16,10,12,7.50
2006,12,16,10,13,7.80
2006,12,16,10,14,7.10
2006,12,16,10,15,4.10
2006,12,16,10,16,5.40
2006,12,16,10,17,5.60
2006,12,16,10,18,5.90
2006,12,16,10,19,2.30
2006,12,16,10,20,6.40
2006,12,16,10,21,7.20
2006,12,16,10,22,7.60
2006,12,16,10,23,6.10
2006,12,16,10,24,8.10
2006,12,16,10,25,9.60
2006,12,16,10,26,10.40
2006,12,16,10,27,7.40
2006,12,16,10,28,10.70
2006,12,16,10,29,8.80
2006,12,16,10,30,8.00
2006,12,16,10,31,6.60
2006,12,16,10,32,4.30
2006,12,16,10,33,4.70
2006,12,16,10,34,6.00
2006,12,16,10,35,8.10
2006,12,16,10,36,11.10
2006,12,16,10,37,10.60
2006,12,16,10,38,8.80
2006,12,16,10,39,7.70
2006,12,16,10,40,6.80
2006,12,16,10,41,5.30
2006,12,16,10,42,9.00
2006,12,16,10,43,7.60
2006,12,16,10,44,6.40
2006,12,16,10,45,4.80
2006,12,16,10,46,4.70
2006,12,16,10,47,4.40
2006,12,16,10,48,4.40
2006,12,16,10,49,4.30
2006,12,16,10,50,7.30
2006,12,16,10,51,9.50
2006,12,16,10,52,9.90
2006,12,16,10,53,8.00
2006,12,16,10,54,5.40
2006,12,16,10,55,3.20
2006,12,16,10,56,4.70
2006,12,16,10,57,7.30
2006,12,16,10,58,10.60
2006,12,16,10,59,6.20
2006,12,16,11,00,5.40
2006,12,16,11,01,7.60
2006,12,16,11,02,7.80
2006,12,16,11,03,8.90
2006,12,16,11,04,5.40
2006,12,16,11,05,9.80
2006,12,16,11,06,8.90
2006,12,16,11,07,8.90
2006,12,16,11,08,8.50
2006,12,16,11,09,8.90
2006,12,16,11,10,9.70
2006,12,16,11,11,8.00
2006,12,16,11,12,8.90
2006,12,16,11,13,9.30
2006,12,16,11,14,13.20
2006,12,16,11,15,12.20
2006,12,16,11,16,8.20
2006,12,16,11,17,7.40
2006,12,16,11,18,8.70
2006,12,16,11,19,10.60
2006,12,16,11,20,7.50
2006,12,16,11,21,9.70
2006,12,16,11,22,11.00
2006,12,16,11,23,12.50
2006,12,16,11,24,17.30
2006,12,16,11,25,8.90
2006,12,16,11,26,9.10
2006,12,16,11,27,10.50
2006,12,16,11,28,9.10
2006,12,16,11,29,9.30
2006,12,16,11,30,12.30
2006,12,16,11,31,10.80
2006,12,16,11,32,7.00
2006,12,16,11,33,5.90
2006,12,16,11,34,10.30
2006,12,16,11,35,6.80
2006,12,16,11,36,7.80
2006,12,16,11,37,8.50
2006,12,16,11,38,9.50
2006,12,16,11,39,7.00
2006,12,16,11,40,7.30
2006,12,16,11,41,8.40
2006,12,16,11,42,12.50
2006,12,16,11,43,9.40
2006,12,16,11,44,12.20
2006,12,16,11,45,10.50
2006,12,16,11,46,8.70
2006,12,16,11,47,13.90
2006,12,16,11,48,11.90
2006,12,16,11,49,11.00
2006,12,16,11,50,10.20
2006,12,16,11,51,8.30
2006,12,16,11,52,7.20
2006,12,16,11,53,9.80
2006,12,16,11,54,8.50
2006,12,16,11,55,11.30
2006,12,16,11,56,9.60
2006,12,16,11,57,8.30
2006,12,16,11,58,8.10
2006,12,16,11,59,11.00
2006,12,16,12,00,6.60
2006,12,16,12,01,7.90
2006,12,16,12,02,8.00
2006,12,16,12,03,8.40
2006,12,16,12,04,8.80
2006,12,16,12,05,9.10
2006,12,16,12,06,7.60
2006,12,16,12,07,7.00
2006,12,16,12,08,9.40
2006,12,16,12,09,12.40
2006,12,16,12,10,10.40
2006,12,16,12,11,10.00
2006,12,16,12,12,9.70
2006,12,16,12,13,12.30
2006,12,16,12,14,13.80
2006,12,16,12,15,13.20
2006,12,16,12,16,10.10
2006,12,16,12,17,10.10
2006,12,16,12,18,10.30
2006,12,16,12,19,6.60
2006,12,16,12,20,6.40
2006,12,16,12,21,6.60
2006,12,16,12,22,9.20
2006,12,16,12,23,9.10
2006,12,16,12,24,11.40
2006,12,16,12,25,13.40
2006,12,16,12,26,15.50
2006,12,16,12,27,10.60
2006,12,16,12,28,13.70
2006,12,16,12,29,10.00
2006,12,16,12,30,10.50
2006,12,16,12,31,10.30
2006,12,16,12,32,14.20
2006,12,16,12,33,14.60
2006,12,16,12,34,8.00
2006,12,16,12,35,7.60
2006,12,16,12,36,10.70
2006,12,16,12,37,9.40
2006,12,16,12,38,8.50
2006,12,16,12,39,8.50
2006,12,16,12,40,9.90
2006,12,16,12,41,10.20
2006,12,16,12,42,8.60
2006,12,16,12,43,9.00
2006,12,16,12,44,10.30
2006,12,16,12,45,7.10
2006,12,16,12,46,10.00
2006,12,16,12,47,9.50
2006,12,16,12,48,7.70
2006,12,16,12,49,6.40
2006,12,16,12,50,6.80
2006,12,16,12,51,9.60
2006,12,16,12,52,8.70
2006,12,16,12,53,6.70
2006,12,16,12,54,10.80
2006,12,16,12,55,8.50
2006,12,16,12,56,10.50
2006,12,16,12,57,10.70
2006,12,16,12,58,9.50
2006,12,16,12,59,6.80
2006,12,16,13,00,7.50
2006,12,16,13,01,13.70
2006,12,16,13,02,9.20
2006,12,16,13,03,9.30
2006,12,16,13,04,12.40
2006,12,16,13,05,8.50
2006,12,16,13,06,11.40
2006,12,16,13,07,14.30
2006,12,16,13,08,14.30
2006,12,16,13,09,10.30
2006,12,16,13,10,9.60
2006,12,16,13,11,13.10
2006,12,16,13,12,13.20
2006,12,16,13,13,12.20
2006,12,16,13,14,9.00
2006,12,16,13,15,6.30
2006,12,16,13,16,5.60
2006,12,16,13,17,5.00
2006,12,16,13,18,8.10
2006,12,16,13,19,9.70
2006,12,16,13,20,12.30
2006,12,16,13,21,10.30
2006,12,16,13,22,14.30
2006,12,16,13,23,7.60
2006,12,16,13,24,5.80
2006,12,16,13,25,6.80
2006,12,16,13,26,8.40
2006,12,16,13,27,8.60
2006,12,16,13,28,8.10
2006,12,16,13,29,7.40
2006,12,16,13,30,7.70
2006,12,16,13,31,5.60
2006,12,16,13,32,4.90
2006,12,16,13,33,11.30
2006,12,16,13,34,8.40
2006,12,16,13,35,10.20
2006,12,16,13,36,11.50
2006,12,16,13,37,8.90
2006,12,16,13,38,7.10
2006,12,16,13,39,7.90
2006,12,16,13,40,6.90
2006,12,16,13,41,6.90
2006,12,16,13,42,11.90
2006,12,16,13,43,11.50
2006,12,16,13,44,11.80
2006,12,16,13,45,10.30
2006,12,16,13,46,16.30
2006,12,16,13,47,12.00
2006,12,16,13,48,6.50
2006,12,16,13,49,5.60
2006,12,16,13,50,7.50
2006,12,16,13,51,9.30
2006,12,16,13,52,7.60
2006,12,16,13,53,6.00
2006,12,16,13,54,6.00
2006,12,16,13,55,3.90
2006,12,16,13,56,4.40
2006,12,16,13,57,5.30
2006,12,16,13,58,5.10
2006,12,16,13,59,3.90
2006,12,16,14,00,5.20
2006,12,16,14,01,5.60
2006,12,16,14,02,8.80
2006,12,16,14,03,9.40
2006,12,16,14,04,10.80
2006,12,16,14,05,7.80
2006,12,16,14,06,6.90
2006,12,16,14,07,4.50
2006,12,16,14,08,8.20
2006,12,16,14,09,8.10
2006,12,16,14,10,5.20
2006,12,16,14,11,6.20
2006,12,16,14,12,6.40
2006,12,16,14,13,7.50
2006,12,16,14,14,10.30
2006,12,16,14,15,6.80
2006,12,16,14,16,6.60
2006,12,16,14,17,6.50
2006,12,16,14,18,6.70
2006,12,16,14,19,5.70
2006,12,16,14,20,3.20
2006,12,16,14,21,6.00
2006,12,16,14,22,9.00
2006,12,16,14,23,9.70
2006,12,16,14,24,8.70
2006,12,16,14,25,6.00
2006,12,16,14,26,5.30
2006,12,16,14,27,6.30
2006,12,16,14,28,6.60
2006,12,16,14,29,6.00
2006,12,16,14,30,5.10
2006,12,16,14,31,6.10
2006,12,16,14,32,4.40
2006,12,16,14,33,4.80
2006,12,16,14,34,7.50
2006,12,16,14,35,7.20
2006,12,16,14,36,6.80
2006,12,16,14,37,6.00
2006,12,16,14,38,5.50
2006,12,16,14,39,6.00
2006,12,16,14,40,6.70
2006,12,16,14,41,4.20
2006,12,16,14,42,3.30
2006,12,16,14,43,6.20
2006,12,16,14,44,7.40
2006,12,16,14,45,5.80
2006,12,16,14,46,9.20
2006,12,16,14,47,7.40
2006,12,16,14,48,6.60
2006,12,16,14,49,6.20
2006,12,16,14,50,5.60
2006,12,16,14,51,6.70
2006,12,16,14,52,6.60
2006,12,16,14,53,4.30
2006,12,16,14,54,4.10
2006,12,16,14,55,4.90
2006,12,16,14,56,8.80
2006,12,16,14,57,7.60
2006,12,16,14,58,8.10
2006,12,16,14,59,9.20
2006,12,16,15,00,10.90
2006,12,16,15,01,8.20
2006,12,16,15,02,8.00
2006,12,16,15,03,8.60
2006,12,16,15,04,8.80
2006,12,16,15,05,8.20
2006,12,16,15,06,6.00
2006,12,16,15,07,4.60
2006,12,16,15,08,6.10
2006,12,16,15,09,5.40
2006,12,16,15,10,5.70
2006,12,16,15,11,9.40
2006,12,16,15,12,6.40
2006,12,16,15,13,5.10
2006,12,16,15,14,5.80
2006,12,16,15,15,9.10
2006,12,16,15,16,10.40
2006,12,16,15,17,8.20
2006,12,16,15,18,5.20
2006,12,16,15,19,9.50
2006,12,16,15,20,7.00
2006,12,16,15,21,3.90
2006,12,16,15,22,4.40
2006,12,16,15,23,6.50
2006,12,16,15,24,9.10
2006,12,16,15,25,10.10
2006,12,16,15,26,7.70
2006,12,16,15,27,7.00
2006,12,16,15,28,8.50
2006,12,16,15,29,8.20
2006,12,16,15,30,7.90
2006,12,16,15,31,6.30
2006,12,16,15,32,8.50
2006,12,16,15,33,5.70
2006,12,16,15,34,8.20
2006,12,16,15,35,2.90
2006,12,16,15,36,4.50
2006,12,16,15,37,5.90
2006,12,16,15,38,7.20
2006,12,16,15,39,7.00
2006,12,16,15,40,3.90
2006,12,16,15,41,2.90
2006,12,16,15,42,3.80
2006,12,16,15,43,5.00
2006,12,16,15,44,6.40
2006,12,16,15,45,6.20
2006,12,16,15,46,6.30
2006,12,16,15,47,5.30
2006,12,16,15,48,5.00
2006,12,16,15,49,5.80
2006,12,16,15,50,5.10
2006,12,16,15,51,4.20
2006,12,16,15,52,3.50
2006,12,16,15,53,3.60
2006,12,16,15,54,4.30
2006,12,16,15,55,3.90
2006,12,16,15,56,5.80
2006,12,16,15,57,5.80
2006,12,16,15,58,5.10
2006,12,16,15,59,4.30
2006,12,16,16,00,8.50
2006,12,16,16,01,4.10
2006,12,16,16,02,5.50
2006,12,16,16,03,4.70
2006,12,16,16,04,4.70
2006,12,16,16,05,4.10
2006,12,16,16,06,4.30
2006,12,16,16,07,3.00
2006,12,16,16,08,3.60
2006,12,16,16,09,3.30
2006,12,16,16,10,3.20
2006,12,16,16,11,4.70
2006,12,16,16,12,6.00
2006,12,16,16,13,6.30
2006,12,16,16,14,2.20
2006,12,16,16,15,3.20
2006,12,16,16,16,3.50
2006,12,16,16,17,6.60
2006,12,16,16,18,4.30
2006,12,16,16,19,5.90
2006,12,16,16,20,4.20
2006,12,16,16,21,2.80
2006,12,16,16,22,3.40
2006,12,16,16,23,4.40
2006,12,16,16,24,3.30
2006,12,16,16,25,4.70
2006,12,16,16,26,4.30
2006,12,16,16,27,2.70
2006,12,16,16,28,3.00
2006,12,16,16,29,4.30
2006,12,16,16,30,2.00
2006,12,16,16,31,3.30
2006,12,16,16,32,3.30
2006,12,16,16,33,3.90
2006,12,16,16,34,4.40
2006,12,16,16,35,3.60
2006,12,16,16,36,4.80
2006,12,16,16,37,4.30
2006,12,16,16,38,5.30
2006,12,16,16,39,4.60
2006,12,16,16,40,4.70
2006,12,16,16,41,3.50
2006,12,16,16,42,3.50
2006,12,16,16,43,3.10
2006,12,16,16,44,4.90
2006,12,16,16,45,5.10
2006,12,16,16,46,4.80
2006,12,16,16,47,5.00
2006,12,16,16,48,4.40
2006,12,16,16,49,3.90
2006,12,16,16,50,5.30
2006,12,16,16,51,3.90
2006,12,16,16,52,3.00
2006,12,16,16,53,3.40
2006,12,16,16,54,4.00
2006,12,16,16,55,3.10
2006,12,16,16,56,5.10
2006,12,16,16,57,4.80
2006,12,16,16,58,4.20
2006,12,16,16,59,6.00
2006,12,16,17,00,5.50
2006,12,16,17,01,6.30
2006,12,16,17,02,4.70
2006,12,16,17,03,3.90
2006,12,16,17,04,6.00
2006,12,16,17,05,3.80
2006,12,16,17,06,5.50
2006,12,16,17,07,5.80
2006,12,16,17,08,5.40
2006,12,16,17,09,6.80
2006,12,16,17,10,7.50
2006,12,16,17,11,4.80
2006,12,16,17,12,4.30
2006,12,16,17,13,7.10
2006,12,16,17,14,7.50
2006,12,16,17,15,5.20
2006,12,16,17,16,8.90
2006,12,16,17,17,7.10
2006,12,16,17,18,6.60
2006,12,16,17,19,5.40
2006,12,16,17,20,6.00
2006,12,16,17,21,5.00
2006,12,16,17,22,5.60
2006,12,16,17,23,5.80
2006,12,16,17,24,6.50
2006,12,16,17,25,6.90
2006,12,16,17,26,6.00
2006,12,16,17,27,6.50
2006,12,16,17,28,6.50
2006,12,16,17,29,6.10
2006,12,16,17,30,6.50
2006,12,16,17,31,4.60
2006,12,16,17,32,4.80
2006,12,16,17,33,4.70
2006,12,16,17,34,4.70
2006,12,16,17,35,4.40
2006,12,16,17,36,6.00
2006,12,16,17,37,3.60
2006,12,16,17,38,5.60
2006,12,16,17,39,5.70
2006,12,16,17,40,5.00
2006,12,16,17,41,4.00
2006,12,16,17,42,7.10
2006,12,16,17,43,5.50
2006,12,16,17,44,8.80
2006,12,16,17,45,8.40
2006,12,16,17,46,6.80
2006,12,16,17,47,5.60
2006,12,16,17,48,4.60
2006,12,16,17,49,4.80
2006,12,16,17,50,7.90
2006,12,16,17,51,6.50
2006,12,16,17,52,9.40
2006,12,16,17,53,6.80
2006,12,16,17,54,6.80
2006,12,16,17,55,6.30
2006,12,16,17,56,4.70
2006,12,16,17,57,6.00
2006,12,16,17,58,6.20
2006,12,16,17,59,7.20
2006,12,16,18,00,6.00
2006,12,16,18,01,6.80